Chippewa, MI

1:09 PM EST on December 16, 2017 (GMT -0500)
Chippewa County International

Weather History for KCIU - January, 2013

Change the Weather History Date:

Thursday, January 10, 2013

  Actual Average Record
Temperature  
Mean Temperature 34 °F -  
Max Temperature 39 °F 21 °F 39 °F (1983)
Min Temperature 28 °F 0 °F -26 °F (1981)
Degree Days  
Heating Degree Days 32    
Moisture  
Dew Point 28 °F    
Average Humidity 81    
Maximum Humidity 93    
Minimum Humidity 61    
Precipitation  
Precipitation 0.00 in - - ()
Sea Level Pressure  
Sea Level Pressure 30.36 in    
Wind  
Wind Speed 10 mph (SSE)    
Max Wind Speed 24 mph    
Max Gust Speed 30 mph    
Visibility 10 miles    
Events      
Averages and records for this station are not official NWS values.
T = Trace of Precipitation, MM = Missing Value Source: NWS Daily Summary

Daily Weather History Graph

Daily Weather History Graph

Search for Another Location

Airport or City:

Trip Planner

Search our weather history database for the weather conditions in past years. The results will help you decide how hot, cold, wet, or windy it might be!

Date:

Astronomy

Jan. 10, 2013 Rise Set
Actual Time 8:19 AM EST 5:12 PM EST
Civil Twilight 7:44 AM EST 5:46 PM EST
Nautical Twilight 7:07 AM EST 6:24 PM EST
Astronomical Twilight 6:31 AM EST 7:00 PM EST
Moon 6:57 AM EST (1/10) 4:19 PM EST (1/10)
Length of Visible Light 10h 01m
Length of Day
8h 53m
Waning Crescent, 2% of the Moon is Illuminated
Jan 10
Waning Crescent
Jan 11
New
Jan 18
First Quarter
Jan 26
Full
Feb 3
Last Quarter

Hourly Weather History & Observations

Time (EST) Temp. Windchill Dew Point Humidity Pressure Visibility Wind Dir Wind Speed Gust Speed Precip Events Conditions
12:15 AM 33.8 °F 24.8 °F 26.6 °F 75% 30.35 in 10.0 mi West 12.7 mph - N/A   Overcast
12:35 AM 33.8 °F 25.3 °F 26.6 °F 75% 30.36 in 10.0 mi West 11.5 mph - N/A   Overcast
12:55 AM 33.8 °F 24.8 °F 26.6 °F 75% 30.36 in 10.0 mi West 12.7 mph - N/A   Overcast
1:15 AM 33.8 °F 24.3 °F 26.6 °F 75% 30.36 in 10.0 mi WNW 13.8 mph - N/A   Overcast
1:35 AM 33.8 °F 24.3 °F 26.6 °F 75% 30.36 in 10.0 mi WNW 13.8 mph - N/A   Overcast
1:55 AM 33.8 °F 25.8 °F 26.6 °F 75% 30.37 in 10.0 mi WNW 10.4 mph - N/A   Overcast
2:15 AM 33.8 °F 23.5 °F 26.6 °F 75% 30.36 in 10.0 mi NW 16.1 mph 24.2 mph N/A   Overcast
2:35 AM 33.8 °F 24.3 °F 26.6 °F 75% 30.37 in 10.0 mi NW 13.8 mph 21.9 mph N/A   Overcast
2:55 AM 33.8 °F 25.3 °F 26.6 °F 75% 30.37 in 10.0 mi WNW 11.5 mph 25.3 mph N/A   Overcast
3:15 AM 33.8 °F 24.8 °F 26.6 °F 75% 30.36 in 10.0 mi NNW 12.7 mph - N/A   Overcast
3:35 AM 33.8 °F 24.3 °F 26.6 °F 75% 30.35 in 10.0 mi NNW 13.8 mph 23.0 mph N/A   Overcast
3:55 AM 33.8 °F 25.3 °F 26.6 °F 75% 30.35 in 10.0 mi NNW 11.5 mph 17.3 mph N/A   Overcast
4:15 AM 33.8 °F 25.8 °F 26.6 °F 75% 30.35 in 10.0 mi NNW 10.4 mph - N/A   Overcast
4:35 AM 32.0 °F 27.5 °F 26.6 °F 80% 30.36 in 10.0 mi NNW 4.6 mph - N/A   Mostly Cloudy
4:55 AM 30.2 °F - 26.6 °F 86% 30.38 in 10.0 mi Calm Calm - N/A   Scattered Clouds
5:15 AM 30.2 °F 26.7 °F 26.6 °F 86% 30.40 in 10.0 mi SW 3.5 mph - N/A   Partly Cloudy
5:35 AM 30.2 °F 25.4 °F 26.6 °F 86% 30.43 in 10.0 mi SSW 4.6 mph - N/A   Clear
5:55 AM 30.2 °F 24.3 °F 26.6 °F 86% 30.44 in 10.0 mi South 5.8 mph - N/A   Mostly Cloudy
6:15 AM 30.2 °F 25.4 °F 26.6 °F 86% 30.46 in 10.0 mi SW 4.6 mph - N/A   Overcast
6:35 AM 30.2 °F 26.7 °F 26.6 °F 86% 30.47 in 10.0 mi SW 3.5 mph - N/A   Overcast
6:55 AM 30.2 °F 26.7 °F 26.6 °F 86% 30.48 in 10.0 mi SSW 3.5 mph - N/A   Overcast
7:35 AM 28.4 °F 23.3 °F 26.6 °F 93% 30.46 in 10.0 mi South 4.6 mph - N/A   Mostly Cloudy
7:55 AM 28.4 °F 23.3 °F 26.6 °F 93% 30.46 in 10.0 mi South 4.6 mph - N/A   Clear
8:15 AM 28.4 °F 23.3 °F 26.6 °F 93% 30.47 in 10.0 mi South 4.6 mph - N/A   Clear
8:35 AM 28.4 °F - 26.6 °F 93% 30.48 in 10.0 mi Calm Calm - N/A   Clear
8:55 AM 28.4 °F 24.6 °F 26.6 °F 93% 30.49 in 10.0 mi WSW 3.5 mph - N/A   Clear
9:15 AM 30.2 °F 26.7 °F 28.4 °F 93% 30.49 in 10.0 mi SSW 3.5 mph - N/A   Clear
9:35 AM 32.0 °F 28.7 °F 28.4 °F 87% 30.49 in 10.0 mi SW 3.5 mph - N/A   Clear
9:55 AM 33.8 °F - 28.4 °F 81% 30.48 in 10.0 mi Calm Calm - N/A   Clear
10:15 AM 33.8 °F - 28.4 °F 81% 30.49 in 10.0 mi Calm Calm - N/A   Clear
10:35 AM 33.8 °F 30.8 °F 26.6 °F 75% 30.48 in 10.0 mi SSW 3.5 mph - N/A   Clear
10:55 AM 33.8 °F 29.6 °F 26.6 °F 75% 30.47 in 10.0 mi ESE 4.6 mph - N/A   Clear
11:15 AM 33.8 °F 29.6 °F 26.6 °F 75% 30.46 in 10.0 mi SE 4.6 mph - N/A   Clear
11:35 AM 33.8 °F 29.6 °F 26.6 °F 75% 30.46 in 10.0 mi SE 4.6 mph - N/A   Clear
11:55 AM 33.8 °F 27.7 °F 28.4 °F 81% 30.44 in 10.0 mi SE 6.9 mph - N/A   Clear
12:15 PM 35.6 °F 28.0 °F 28.4 °F 75% 30.43 in 10.0 mi SE 10.4 mph - N/A   Clear
12:35 PM 35.6 °F 28.0 °F 28.4 °F 75% 30.42 in 10.0 mi SE 10.4 mph - N/A   Clear
12:55 PM 35.6 °F 27.5 °F 28.4 °F 75% 30.41 in 10.0 mi SE 11.5 mph - N/A   Clear
1:15 PM 37.4 °F 30.3 °F 28.4 °F 70% 30.40 in 10.0 mi SSE 10.4 mph - N/A   Clear
1:35 PM 39.2 °F 32.0 °F 26.6 °F 61% 30.39 in 10.0 mi SSE 11.5 mph - N/A   Clear
1:55 PM 39.2 °F 34.2 °F 28.4 °F 65% 30.40 in 10.0 mi South 6.9 mph - N/A   Clear
2:15 PM 37.4 °F 30.8 °F 28.4 °F 70% 30.40 in 10.0 mi South 9.2 mph - N/A   Clear
2:35 PM 37.4 °F 30.8 °F 28.4 °F 70% 30.39 in 10.0 mi South 9.2 mph - N/A   Clear
2:55 PM 37.4 °F 32.1 °F 26.6 °F 65% 30.38 in 10.0 mi SSE 6.9 mph - N/A   Clear
3:15 PM 37.4 °F 31.4 °F 26.6 °F 65% 30.38 in 10.0 mi SSE 8.1 mph - N/A   Clear
3:35 PM 35.6 °F 27.5 °F 26.6 °F 70% 30.38 in 10.0 mi SE 11.5 mph - N/A   Clear
3:55 PM 35.6 °F 27.1 °F 28.4 °F 75% 30.37 in 10.0 mi SE 12.7 mph - N/A   Clear
4:15 PM 35.6 °F 28.0 °F 28.4 °F 75% 30.35 in 10.0 mi ESE 10.4 mph - N/A   Clear
4:35 PM 35.6 °F 28.6 °F 28.4 °F 75% 30.35 in 10.0 mi ESE 9.2 mph - N/A   Clear
4:55 PM 35.6 °F 28.0 °F 28.4 °F 75% 30.34 in 10.0 mi ESE 10.4 mph - N/A   Clear
5:15 PM 33.8 °F 26.4 °F 28.4 °F 81% 30.33 in 10.0 mi ESE 9.2 mph - N/A   Clear
5:35 PM 33.8 °F 25.8 °F 28.4 °F 81% 30.33 in 10.0 mi ESE 10.4 mph - N/A   Clear
5:55 PM 33.8 °F 24.8 °F 28.4 °F 81% 30.33 in 10.0 mi ESE 12.7 mph - N/A   Clear
6:15 PM 33.8 °F 25.8 °F 30.2 °F 87% 30.33 in 10.0 mi ESE 10.4 mph - N/A   Clear
6:35 PM 33.8 °F 25.3 °F 30.2 °F 87% 30.32 in 10.0 mi ESE 11.5 mph - N/A   Clear
6:55 PM 33.8 °F 25.3 °F 30.2 °F 87% 30.31 in 10.0 mi ESE 11.5 mph - N/A   Clear
7:15 PM 33.8 °F 25.3 °F 30.2 °F 87% 30.30 in 10.0 mi ESE 11.5 mph - N/A   Clear
7:35 PM 33.8 °F 25.3 °F 32.0 °F 93% 30.29 in 10.0 mi ESE 11.5 mph - N/A   Clear
7:55 PM 33.8 °F 24.8 °F 32.0 °F 93% 30.29 in 10.0 mi ESE 12.7 mph - N/A   Clear
8:15 PM 33.8 °F 25.8 °F 32.0 °F 93% 30.29 in 10.0 mi ESE 10.4 mph - N/A   Clear
8:35 PM 33.8 °F 25.8 °F 32.0 °F 93% 30.27 in 10.0 mi ESE 10.4 mph - N/A   Clear
8:55 PM 33.8 °F 24.8 °F 32.0 °F 93% 30.26 in 10.0 mi ESE 12.7 mph - N/A   Clear
9:15 PM 33.8 °F 24.8 °F 32.0 °F 93% 30.24 in 10.0 mi ESE 12.7 mph - N/A   Clear
9:35 PM 33.8 °F 25.3 °F 30.2 °F 87% 30.22 in 10.0 mi East 11.5 mph - N/A   Clear
9:55 PM 33.8 °F 24.3 °F 30.2 °F 87% 30.22 in 10.0 mi ESE 13.8 mph - N/A   Clear
10:15 PM 33.8 °F 23.2 °F 32.0 °F 93% 30.20 in 10.0 mi ESE 17.3 mph - N/A   Clear
10:35 PM 33.8 °F 22.2 °F 32.0 °F 93% 30.18 in 10.0 mi SE 20.7 mph 26.5 mph N/A   Clear
10:55 PM 35.6 °F 24.8 °F 32.0 °F 87% 30.17 in 10.0 mi SE 19.6 mph 25.3 mph N/A   Clear
11:15 PM 35.6 °F 24.2 °F 32.0 °F 87% 30.15 in 10.0 mi SE 21.9 mph - N/A   Partly Cloudy
11:35 PM 35.6 °F 23.7 °F 32.0 °F 87% 30.13 in 10.0 mi SE 24.2 mph 29.9 mph N/A   Clear
11:55 PM 35.6 °F 23.7 °F 33.8 °F 93% 30.12 in 10.0 mi SE 24.2 mph 29.9 mph N/A   Clear